Memphis, TN

2:12 PM CDT on June 28, 2017 (GMT -0500)
Memphis International

Weather History for KMEM - December, 2012

Change the Weather History Date:

Tuesday, December 18, 2012

  Actual Average Record
Temperature  
Mean Temperature 49 °F 43 °F  
Max Temperature 63 °F 51 °F 74 °F (1889)
Min Temperature 35 °F 34 °F 8 °F (1901)
Degree Days  
Heating Degree Days 16 22  
Month to date heating degree days 173 365  
Since 1 July heating degree days 730 864  
Cooling Degree Days 0 0  
Month to date cooling degree days 4 0  
Year to date cooling degree days 2617 2256  
Moisture  
Dew Point 39 °F    
Average Humidity 72    
Maximum Humidity 100    
Minimum Humidity 43    
Precipitation  
Precipitation 0.00 in 0.18 in 2.03 in (1933)
Month to date precipitation 1.59 3.51  
Year to date precipitation 34.76 51.45  
Snow  
Snow 0.00 in 0.00 in 2.80 in (1909)
Month to date snowfall 0.0 0.0  
Since 1 July snowfall 0.0 T  
Snow Depth 0.00 in    
Sea Level Pressure  
Sea Level Pressure 29.88 in    
Wind  
Wind Speed 8 mph (South)    
Max Wind Speed 20 mph    
Max Gust Speed 26 mph    
Visibility 9 miles    
Events      
T = Trace of Precipitation, MM = Missing Value Source: NWS Daily Summary

Daily Weather History Graph

Daily Weather History Graph

Search for Another Location

Airport or City:

Trip Planner

Search our weather history database for the weather conditions in past years. The results will help you decide how hot, cold, wet, or windy it might be!

Date:

Astronomy

Dec. 18, 2012 Rise Set
Actual Time 7:02 AM CST 4:50 PM CST
Civil Twilight 6:34 AM CST 5:19 PM CST
Nautical Twilight 6:02 AM CST 5:50 PM CST
Astronomical Twilight 5:31 AM CST 6:21 PM CST
Moon 10:54 AM CST (12/18) 11:03 PM CST (12/18)
Length of Visible Light 10h 44m
Length of Day
9h 48m
Waxing Crescent, 35% of the Moon is Illuminated
Dec 18
Waxing Crescent
Dec 19
First Quarter
Dec 28
Full
Jan 4
Last Quarter
Jan 11
New

Hourly Weather History & Observations

Time (CST) Temp. Windchill Dew Point Humidity Pressure Visibility Wind Dir Wind Speed Gust Speed Precip Events Conditions
12:54 AM 39.0 °F - 36.0 °F 89% 29.86 in 7.0 mi Calm Calm - N/A   Clear
1:54 AM 39.0 °F - 37.0 °F 93% 29.87 in 9.0 mi Calm Calm - N/A   Clear
2:54 AM 39.0 °F 36.8 °F 36.0 °F 89% 29.88 in 8.0 mi SSW 3.5 mph - N/A   Clear
3:54 AM 37.0 °F - 34.0 °F 89% 29.89 in 8.0 mi Calm Calm - N/A   Clear
4:54 AM 37.4 °F - 35.6 °F 93% 29.89 in 9.0 mi Calm Calm - N/A   Clear
5:54 AM 37.9 °F - 36.0 °F 93% 29.90 in 8.0 mi Calm Calm - N/A   Clear
6:54 AM 37.0 °F 32.4 °F 35.1 °F 93% 29.91 in 5.0 mi South 5.8 mph - N/A   Clear
7:54 AM 37.9 °F 33.5 °F 37.0 °F 97% 29.92 in 3.0 mi South 5.8 mph - N/A   Clear
8:54 AM 46.0 °F 41.9 °F 41.0 °F 83% 29.92 in 6.0 mi South 8.1 mph - N/A   Haze
9:54 AM 51.1 °F - 43.0 °F 74% 29.93 in 8.0 mi South 12.7 mph - N/A   Clear
10:54 AM 55.9 °F - 42.1 °F 60% 29.93 in 10.0 mi South 8.1 mph - N/A   Clear
11:54 AM 60.1 °F - 41.0 °F 49% 29.90 in 10.0 mi SSW 15.0 mph 23.0 mph N/A   Clear
12:54 PM 62.1 °F - 39.0 °F 43% 29.87 in 10.0 mi SSW 15.0 mph - N/A   Partly Cloudy
1:54 PM 63.0 °F - 39.9 °F 43% 29.86 in 10.0 mi South 17.3 mph 23.0 mph N/A   Partly Cloudy
2:54 PM 63.0 °F - 41.0 °F 45% 29.84 in 10.0 mi South 16.1 mph - N/A   Partly Cloudy
3:54 PM 62.1 °F - 39.9 °F 44% 29.83 in 10.0 mi South 16.1 mph 21.9 mph N/A   Partly Cloudy
4:54 PM 60.1 °F - 39.9 °F 47% 29.83 in 10.0 mi South 13.8 mph - N/A   Partly Cloudy
5:54 PM 59.0 °F - 41.0 °F 51% 29.84 in 10.0 mi SSW 12.7 mph - N/A   Partly Cloudy
6:54 PM 57.0 °F - 39.9 °F 53% 29.86 in 10.0 mi SSW 9.2 mph - N/A   Partly Cloudy
7:54 PM 55.9 °F - 39.9 °F 55% 29.88 in 10.0 mi SSW 6.9 mph - N/A   Partly Cloudy
8:54 PM 53.1 °F - 39.0 °F 59% 29.89 in 10.0 mi South 4.6 mph - N/A   Partly Cloudy
9:54 PM 50.0 °F - 39.0 °F 66% 29.89 in 10.0 mi Calm Calm - N/A   Clear
10:54 PM 51.1 °F - 39.9 °F 66% 29.90 in 10.0 mi South 5.8 mph - N/A   Clear
11:54 PM 50.0 °F - 39.9 °F 68% 29.90 in 10.0 mi South 5.8 mph - N/A   Clear